JBU1472 KISP-KILM

Flight info

Callsign JBU1472
Flight time 1h 20m
Altitude 32000
Route BEADS EMJAY Q167 ZJAAY Q97 PAACK
Aircraft A320/M-SDE3FGHIRWY/LB1

Departure

Time 2026-05-07 00:31
Airport Long Island MacArthur Airport (KISP)

Arrival

Time 2026-05-07 01:52
Airport Wilmington International Airport (KILM)
Time Latitude Longitude Altitude Speed Heading
2026-05-07 00:10 40.79048 -73.09729 98 ft 0 kts 180°
2026-05-07 00:19 40.79049 -73.09729 98 ft 2 kts 180°
2026-05-07 00:19 40.79066 -73.09729 98 ft 3 kts 180°
2026-05-07 00:19 40.79084 -73.09729 98 ft 3 kts 180°
2026-05-07 00:19 40.79102 -73.09731 98 ft 3 kts 156°
2026-05-07 00:20 40.79115 -73.09743 96 ft 1 kts 136°
2026-05-07 00:25 40.79112 -73.09734 98 ft 3 kts 114°
2026-05-07 00:25 40.79112 -73.09703 98 ft 4 kts 88°
2026-05-07 00:25 40.79113 -73.09655 99 ft 7 kts 88°
2026-05-07 00:25 40.79114 -73.09595 98 ft 6 kts 87°
2026-05-07 00:26 40.79140 -73.09530 98 ft 9 kts 46°
2026-05-07 00:26 40.79193 -73.09465 98 ft 13 kts 33°
2026-05-07 00:26 40.79273 -73.09465 98 ft 11 kts 347°
2026-05-07 00:26 40.79350 -73.09470 98 ft 11 kts 360°
2026-05-07 00:27 40.79423 -73.09470 98 ft 11 kts 359°
2026-05-07 00:27 40.79496 -73.09470 98 ft 10 kts
2026-05-07 00:27 40.79591 -73.09469 98 ft 16 kts
2026-05-07 00:27 40.79706 -73.09469 98 ft 19 kts 360°
2026-05-07 00:28 40.79846 -73.09471 98 ft 20 kts 359°
2026-05-07 00:28 40.79985 -73.09471 100 ft 20 kts 360°
2026-05-07 00:28 40.80082 -73.09438 99 ft 11 kts 44°
2026-05-07 00:28 40.80132 -73.09390 99 ft 7 kts 16°
2026-05-07 00:29 40.80146 -73.09391 99 ft 0 kts 337°
2026-05-07 00:30 40.80158 -73.09399 99 ft 7 kts 334°
2026-05-07 00:30 40.80186 -73.09429 102 ft 2 kts 316°
2026-05-07 00:30 40.80190 -73.09433 102 ft 2 kts 316°
2026-05-07 00:30 40.80200 -73.09486 103 ft 11 kts 243°
2026-05-07 00:31 40.80063 -73.09669 101 ft 56 kts 225°
2026-05-07 00:31 40.79629 -73.10242 102 ft 120 kts 225°
2026-05-07 00:31 40.78963 -73.11124 454 ft 138 kts 225°
2026-05-07 00:31 40.78291 -73.12055 1067 ft 143 kts 226°
2026-05-07 00:32 40.77578 -73.13004 1653 ft 147 kts 228°
2026-05-07 00:32 40.76731 -73.13825 2206 ft 160 kts 205°
2026-05-07 00:32 40.75564 -73.13734 2788 ft 187 kts 165°
2026-05-07 00:32 40.74385 -73.12789 3388 ft 209 kts 147°
2026-05-07 00:33 40.73478 -73.11128 3879 ft 241 kts 118°
2026-05-07 00:33 40.73011 -73.08868 4368 ft 269 kts 101°
2026-05-07 00:33 40.72894 -73.06326 4964 ft 287 kts 91°
2026-05-07 00:33 40.72968 -73.03666 5535 ft 298 kts 88°
2026-05-07 00:34 40.73109 -73.00917 6093 ft 302 kts 87°
2026-05-07 00:34 40.73243 -72.98143 6622 ft 305 kts 88°
2026-05-07 00:34 40.73342 -72.95322 7174 ft 310 kts 89°
2026-05-07 00:34 40.73403 -72.92465 7713 ft 314 kts 90°
2026-05-07 00:35 40.73414 -72.89571 8262 ft 317 kts 96°
2026-05-07 00:35 40.72975 -72.86740 8821 ft 316 kts 117°
2026-05-07 00:35 40.71757 -72.84340 9400 ft 317 kts 146°
2026-05-07 00:35 40.69844 -72.83003 9968 ft 310 kts 175°
2026-05-07 00:36 40.67727 -72.83061 10510 ft 305 kts 201°
2026-05-07 00:36 40.65721 -72.84038 11048 ft 312 kts 211°
2026-05-07 00:36 40.63776 -72.85421 11598 ft 322 kts 216°
2026-05-07 00:36 40.61840 -72.87003 12153 ft 332 kts 217°
2026-05-07 00:37 40.59889 -72.88639 12716 ft 342 kts 217°
2026-05-07 00:37 40.57846 -72.90314 13287 ft 349 kts 217°
2026-05-07 00:37 40.55737 -72.91980 13846 ft 356 kts 216°
2026-05-07 00:37 40.53573 -72.93632 14363 ft 363 kts 215°
2026-05-07 00:38 40.51358 -72.95285 14963 ft 366 kts 215°
2026-05-07 00:38 40.49135 -72.96922 15685 ft 366 kts 215°
2026-05-07 00:38 40.46910 -72.98553 16422 ft 366 kts 215°
2026-05-07 00:38 40.44684 -73.00184 17108 ft 368 kts 215°
2026-05-07 00:39 40.42437 -73.01837 17682 ft 373 kts 215°
2026-05-07 00:39 40.40162 -73.03516 18248 ft 377 kts 216°
2026-05-07 00:39 40.37862 -73.05214 18711 ft 381 kts 216°
2026-05-07 00:39 40.35535 -73.06931 19177 ft 385 kts 216°
2026-05-07 00:40 40.33217 -73.08641 19649 ft 389 kts 216°
2026-05-07 00:40 40.30848 -73.10385 20115 ft 392 kts 217°
2026-05-07 00:40 40.28458 -73.12142 20616 ft 395 kts 217°
2026-05-07 00:40 40.26058 -73.13905 21109 ft 397 kts 217°
2026-05-07 00:41 40.23636 -73.15683 21610 ft 399 kts 218°
2026-05-07 00:41 40.21205 -73.17465 22134 ft 401 kts 218°
2026-05-07 00:41 40.18766 -73.19252 22645 ft 403 kts 218°
2026-05-07 00:41 40.16318 -73.21045 23178 ft 403 kts 218°
2026-05-07 00:42 40.13869 -73.22837 23668 ft 404 kts 219°
2026-05-07 00:42 40.11412 -73.24643 24113 ft 403 kts 220°
2026-05-07 00:42 40.09097 -73.26652 24569 ft 396 kts 225°
2026-05-07 00:42 40.06933 -73.28859 25034 ft 393 kts 227°
2026-05-07 00:43 40.04823 -73.31127 25496 ft 392 kts 228°
2026-05-07 00:43 40.02751 -73.33426 25977 ft 391 kts 229°
2026-05-07 00:43 40.00690 -73.35746 26464 ft 390 kts 229°
2026-05-07 00:43 39.98642 -73.38062 26959 ft 389 kts 229°
2026-05-07 00:44 39.96628 -73.40334 27449 ft 387 kts 229°
2026-05-07 00:44 39.94590 -73.42625 27957 ft 385 kts 229°
2026-05-07 00:44 39.92561 -73.44895 28477 ft 383 kts 229°
2026-05-07 00:44 39.90547 -73.47143 28998 ft 380 kts 229°
2026-05-07 00:45 39.88541 -73.49377 29536 ft 378 kts 229°
2026-05-07 00:45 39.86550 -73.51592 30062 ft 375 kts 229°
2026-05-07 00:45 39.84575 -73.53787 30530 ft 372 kts 230°
2026-05-07 00:45 39.82618 -73.55964 31004 ft 368 kts 230°
2026-05-07 00:46 39.80691 -73.58106 31480 ft 364 kts 231°
2026-05-07 00:46 39.78760 -73.60257 31817 ft 364 kts 231°
2026-05-07 00:46 39.74884 -73.64592 31900 ft 376 kts 231°
2026-05-07 00:47 39.70835 -73.69118 31898 ft 392 kts 230°
2026-05-07 00:47 39.66643 -73.73767 31894 ft 399 kts 230°
2026-05-07 00:48 39.62408 -73.78426 31897 ft 398 kts 230°
2026-05-07 00:48 39.58186 -73.83075 31898 ft 398 kts 230°
2026-05-07 00:49 39.53967 -73.87724 31899 ft 398 kts 230°
2026-05-07 00:49 39.49744 -73.92373 31902 ft 398 kts 230°
2026-05-07 00:50 39.45532 -73.97003 31900 ft 398 kts 230°
2026-05-07 00:50 39.41284 -74.01664 31901 ft 398 kts 230°
2026-05-07 00:51 39.37069 -74.06278 31899 ft 399 kts 230°
2026-05-07 00:51 39.32900 -74.10830 31897 ft 399 kts 230°
2026-05-07 00:52 39.28663 -74.15449 31900 ft 399 kts 230°
2026-05-07 00:52 39.24414 -74.20075 31900 ft 399 kts 230°
2026-05-07 00:53 39.20146 -74.24714 31902 ft 400 kts 230°
2026-05-07 00:53 39.15890 -74.29333 31898 ft 400 kts 230°
2026-05-07 00:54 39.12342 -74.33176 31900 ft 401 kts 229°
2026-05-07 00:54 39.08074 -74.37795 31906 ft 401 kts 229°
2026-05-07 00:55 39.03795 -74.42415 31903 ft 401 kts 229°
2026-05-07 00:55 38.99517 -74.47028 31905 ft 401 kts 229°
2026-05-07 00:56 38.95274 -74.51668 31900 ft 396 kts 234°
2026-05-07 00:56 38.93715 -74.54459 31900 ft 375 kts 250°
2026-05-07 00:56 38.93026 -74.57612 31904 ft 364 kts 266°
2026-05-07 00:57 38.93231 -74.60789 31905 ft 365 kts 282°
2026-05-07 00:57 38.94062 -74.63899 31907 ft 369 kts 287°
2026-05-07 00:57 38.96046 -74.70001 31903 ft 371 kts 288°
2026-05-07 00:58 38.98067 -74.76104 31897 ft 370 kts 288°
2026-05-07 00:58 38.99923 -74.82264 31908 ft 370 kts 282°
2026-05-07 00:59 39.00747 -74.88761 31893 ft 367 kts 268°
2026-05-07 00:59 39.00231 -74.91963 31898 ft 372 kts 252°
2026-05-07 00:59 38.98844 -74.94821 31894 ft 386 kts 236°
2026-05-07 01:00 38.96701 -74.97028 31894 ft 408 kts 220°
2026-05-07 01:00 38.91436 -75.00124 31899 ft 419 kts 214°
2026-05-07 01:01 38.85999 -75.02944 31907 ft 422 kts 213°
2026-05-07 01:01 38.80565 -75.05699 31900 ft 422 kts 213°
2026-05-07 01:02 38.75017 -75.08535 31894 ft 418 kts 213°
2026-05-07 01:02 38.69744 -75.11255 31901 ft 416 kts 213°
2026-05-07 01:03 38.64603 -75.13918 31907 ft 417 kts 213°
2026-05-07 01:03 38.58971 -75.16829 31901 ft 417 kts 213°
2026-05-07 01:04 38.53587 -75.19603 31900 ft 418 kts 213°
2026-05-07 01:04 38.48228 -75.22358 31910 ft 418 kts 213°
2026-05-07 01:05 38.42830 -75.25129 31909 ft 418 kts 213°
2026-05-07 01:05 38.37424 -75.27901 31911 ft 419 kts 212°
2026-05-07 01:06 38.32012 -75.30672 31909 ft 420 kts 212°
2026-05-07 01:06 38.26572 -75.33452 31901 ft 421 kts 212°
2026-05-07 01:07 38.21235 -75.36173 31902 ft 421 kts 212°
2026-05-07 01:07 38.15685 -75.38999 31902 ft 422 kts 212°
2026-05-07 01:08 38.10266 -75.41754 31916 ft 422 kts 212°
2026-05-07 01:08 38.05072 -75.44706 31923 ft 412 kts 219°
2026-05-07 01:09 38.00165 -75.48687 31926 ft 408 kts 223°
2026-05-07 01:09 37.95487 -75.52761 31932 ft 407 kts 223°
2026-05-07 01:10 37.90832 -75.56858 31916 ft 408 kts 223°
2026-05-07 01:10 37.86157 -75.60945 31916 ft 409 kts 223°
2026-05-07 01:11 37.81397 -75.64870 31917 ft 413 kts 220°
2026-05-07 01:11 37.76448 -75.68585 31913 ft 414 kts 219°
2026-05-07 01:12 37.71465 -75.72268 31908 ft 415 kts 219°
2026-05-07 01:12 37.66476 -75.75983 31910 ft 415 kts 219°
2026-05-07 01:13 37.61496 -75.79712 31914 ft 416 kts 219°
2026-05-07 01:13 37.56539 -75.83426 31915 ft 417 kts 219°
2026-05-07 01:14 37.51606 -75.87260 31921 ft 414 kts 222°
2026-05-07 01:14 37.46888 -75.91416 31927 ft 413 kts 224°
2026-05-07 01:15 37.42221 -75.95644 31928 ft 413 kts 224°
2026-05-07 01:15 37.37559 -75.99824 31930 ft 414 kts 224°
2026-05-07 01:16 37.32838 -76.04012 31926 ft 415 kts 223°
2026-05-07 01:16 37.28142 -76.08158 31925 ft 415 kts 223°
2026-05-07 01:17 37.23373 -76.12359 31926 ft 416 kts 223°
2026-05-07 01:17 37.18636 -76.16528 31923 ft 416 kts 223°
2026-05-07 01:18 37.13896 -76.20695 31921 ft 416 kts 223°
2026-05-07 01:18 37.09148 -76.24863 31924 ft 417 kts 223°
2026-05-07 01:19 37.04423 -76.29003 31924 ft 417 kts 223°
2026-05-07 01:19 36.99671 -76.33161 31933 ft 417 kts 223°
2026-05-07 01:20 36.94898 -76.37330 31931 ft 417 kts 223°
2026-05-07 01:20 36.90343 -76.41304 31933 ft 417 kts 223°
2026-05-07 01:21 36.85394 -76.45611 31948 ft 414 kts 223°
2026-05-07 01:21 36.80676 -76.49710 31953 ft 411 kts 223°
2026-05-07 01:22 36.76514 -76.54283 31953 ft 390 kts 243°
2026-05-07 01:22 36.74268 -76.60348 31963 ft 385 kts 252°
2026-05-07 01:23 36.72298 -76.66559 31963 ft 385 kts 252°
2026-05-07 01:23 36.70338 -76.72770 31960 ft 385 kts 252°
2026-05-07 01:24 36.68093 -76.78861 31951 ft 390 kts 244°
2026-05-07 01:24 36.64713 -76.84183 31952 ft 402 kts 230°
2026-05-07 01:25 36.60004 -76.88236 31952 ft 421 kts 217°
2026-05-07 01:25 36.54644 -76.91383 31941 ft 429 kts 213°
2026-05-07 01:26 36.49190 -76.94305 31940 ft 430 kts 212°
2026-05-07 01:26 36.43679 -76.97316 31940 ft 429 kts 213°
2026-05-07 01:27 36.38304 -77.00321 31941 ft 424 kts 213°
2026-05-07 01:27 36.32873 -77.03386 31953 ft 423 kts 213°
2026-05-07 01:28 36.27577 -77.06377 31954 ft 423 kts 213°
2026-05-07 01:28 36.22213 -77.09397 31831 ft 423 kts 213°
2026-05-07 01:28 36.19532 -77.10904 31587 ft 424 kts 213°
2026-05-07 01:29 36.16859 -77.12405 31342 ft 425 kts 213°
2026-05-07 01:29 36.14164 -77.13918 31105 ft 426 kts 212°
2026-05-07 01:29 36.11467 -77.15430 30837 ft 427 kts 212°
2026-05-07 01:29 36.08746 -77.16954 30554 ft 428 kts 212°
2026-05-07 01:30 36.06027 -77.18476 30283 ft 430 kts 211°
2026-05-07 01:30 36.03302 -77.20000 30000 ft 430 kts 211°
2026-05-07 01:30 36.00582 -77.21517 29673 ft 430 kts 211°
2026-05-07 01:30 35.97852 -77.23036 29344 ft 428 kts 211°
2026-05-07 01:31 35.95135 -77.24546 29045 ft 428 kts 210°
2026-05-07 01:31 35.89480 -77.26996 28969 ft 438 kts 204°
2026-05-07 01:32 35.83611 -77.29117 28968 ft 439 kts 203°
2026-05-07 01:32 35.77728 -77.31208 28820 ft 439 kts 203°
2026-05-07 01:32 35.74809 -77.32243 28353 ft 438 kts 203°
2026-05-07 01:33 35.71856 -77.33288 27868 ft 439 kts 202°
2026-05-07 01:33 35.68867 -77.34354 27469 ft 456 kts 202°
2026-05-07 01:33 35.65826 -77.35435 27074 ft 464 kts 202°
2026-05-07 01:33 35.62684 -77.36543 26669 ft 464 kts 202°
2026-05-07 01:34 35.59620 -77.37621 26234 ft 463 kts 202°
2026-05-07 01:34 35.56535 -77.38706 25640 ft 461 kts 202°
2026-05-07 01:34 35.53463 -77.39786 25055 ft 458 kts 202°
2026-05-07 01:34 35.50404 -77.40861 24485 ft 453 kts 202°
2026-05-07 01:35 35.47395 -77.41921 23920 ft 447 kts 202°
2026-05-07 01:35 35.44437 -77.43022 23342 ft 441 kts 203°
2026-05-07 01:35 35.41528 -77.44167 22676 ft 437 kts 204°
2026-05-07 01:35 35.38928 -77.45214 22110 ft 434 kts 204°
2026-05-07 01:36 35.35795 -77.46478 21410 ft 430 kts 203°
2026-05-07 01:36 35.32948 -77.47590 20792 ft 427 kts 203°
2026-05-07 01:36 35.30128 -77.48693 20187 ft 423 kts 203°
2026-05-07 01:36 35.27335 -77.49795 19581 ft 420 kts 203°
2026-05-07 01:37 35.24565 -77.50895 19011 ft 416 kts 203°
2026-05-07 01:37 35.21821 -77.51990 18442 ft 413 kts 203°
2026-05-07 01:37 35.19105 -77.53079 17817 ft 410 kts 203°
2026-05-07 01:37 35.16404 -77.54162 17170 ft 406 kts 203°
2026-05-07 01:38 35.13777 -77.55214 16647 ft 399 kts 203°
2026-05-07 01:38 35.11131 -77.56268 16144 ft 392 kts 203°
2026-05-07 01:38 35.08584 -77.57281 15671 ft 389 kts 203°
2026-05-07 01:38 35.06008 -77.58306 15187 ft 387 kts 203°
2026-05-07 01:39 35.03430 -77.59330 14711 ft 384 kts 203°
2026-05-07 01:39 35.00928 -77.60325 14231 ft 380 kts 203°
2026-05-07 01:39 34.98437 -77.61316 13697 ft 373 kts 203°
2026-05-07 01:39 34.95988 -77.62286 13098 ft 367 kts 203°
2026-05-07 01:40 34.93604 -77.63226 12507 ft 352 kts 203°
2026-05-07 01:40 34.91317 -77.64118 11929 ft 338 kts 203°
2026-05-07 01:40 34.89119 -77.64969 11366 ft 326 kts 203°
2026-05-07 01:40 34.86996 -77.65786 10821 ft 316 kts 203°
2026-05-07 01:41 34.85614 -77.66309 10462 ft 309 kts 203°
2026-05-07 01:41 34.83601 -77.67072 10039 ft 298 kts 202°
2026-05-07 01:41 34.81646 -77.67781 9575 ft 288 kts 202°
2026-05-07 01:41 34.79740 -77.68465 9065 ft 284 kts 202°
2026-05-07 01:42 34.77857 -77.69141 8571 ft 281 kts 202°
2026-05-07 01:42 34.75981 -77.69823 8076 ft 279 kts 202°
2026-05-07 01:42 34.74129 -77.70505 7585 ft 278 kts 202°
2026-05-07 01:42 34.72283 -77.71191 7231 ft 277 kts 202°
2026-05-07 01:43 34.70445 -77.71884 6945 ft 275 kts 202°
2026-05-07 01:43 34.68624 -77.72574 6665 ft 273 kts 201°
2026-05-07 01:43 34.66737 -77.72940 6303 ft 279 kts 185°
2026-05-07 01:43 34.64787 -77.72838 5844 ft 281 kts 181°
2026-05-07 01:44 34.62867 -77.72656 5380 ft 281 kts 180°
2026-05-07 01:44 34.60897 -77.72457 4915 ft 280 kts 180°
2026-05-07 01:44 34.58965 -77.72260 4434 ft 275 kts 180°
2026-05-07 01:44 34.57094 -77.72074 4043 ft 267 kts 180°
2026-05-07 01:45 34.55274 -77.71898 3689 ft 266 kts 180°
2026-05-07 01:45 34.53441 -77.71732 3395 ft 262 kts 180°
2026-05-07 01:45 34.51635 -77.71571 3150 ft 259 kts 180°
2026-05-07 01:45 34.49850 -77.71415 2996 ft 256 kts 180°
2026-05-07 01:46 34.48099 -77.71482 2900 ft 245 kts 194°
2026-05-07 01:46 34.46476 -77.71957 2713 ft 237 kts 200°
2026-05-07 01:46 34.44906 -77.72503 2488 ft 232 kts 200°
2026-05-07 01:46 34.43366 -77.73054 2269 ft 230 kts 200°
2026-05-07 01:47 34.41837 -77.73596 2061 ft 228 kts 200°
2026-05-07 01:47 34.40336 -77.74125 1873 ft 219 kts 200°
2026-05-07 01:47 34.38930 -77.74659 1783 ft 203 kts 208°
2026-05-07 01:47 34.37740 -77.75517 1795 ft 198 kts 220°
2026-05-07 01:48 34.36755 -77.76646 1807 ft 188 kts 227°
2026-05-07 01:48 34.35929 -77.77768 1792 ft 169 kts 228°
2026-05-07 01:48 34.35180 -77.78798 1786 ft 159 kts 228°
2026-05-07 01:48 34.34465 -77.79774 1800 ft 153 kts 228°
2026-05-07 01:49 34.33774 -77.80743 1715 ft 148 kts 229°
2026-05-07 01:49 34.33107 -77.81672 1576 ft 145 kts 228°
2026-05-07 01:49 34.32454 -77.82550 1434 ft 134 kts 227°
2026-05-07 01:49 34.31868 -77.83350 1209 ft 122 kts 227°
2026-05-07 01:50 34.31311 -77.84098 1020 ft 119 kts 228°
2026-05-07 01:50 34.30752 -77.84824 860 ft 118 kts 226°
2026-05-07 01:50 34.30205 -77.85584 682 ft 124 kts 226°
2026-05-07 01:50 34.29624 -77.86387 583 ft 128 kts 227°
2026-05-07 01:51 34.29030 -77.87194 469 ft 130 kts 226°
2026-05-07 01:51 34.28433 -77.87990 274 ft 126 kts 227°
2026-05-07 01:51 34.27845 -77.88790 110 ft 127 kts 226°
2026-05-07 01:51 34.27275 -77.89560 35 ft 117 kts 227°
2026-05-07 01:52 34.26826 -77.90168 32 ft 80 kts 228°
2026-05-07 01:52 34.26563 -77.90523 33 ft 36 kts 228°
2026-05-07 01:52 34.26427 -77.90706 33 ft 26 kts 227°
2026-05-07 01:52 34.26422 -77.90827 33 ft 16 kts 316°
2026-05-07 01:53 34.26471 -77.90876 32 ft 5 kts 320°
2026-05-07 01:53 34.26509 -77.90890 34 ft 6 kts 12°
2026-05-07 01:53 34.26542 -77.90859 34 ft 6 kts 52°
2026-05-07 01:53 34.26568 -77.90822 32 ft 6 kts 49°
2026-05-07 01:54 34.26601 -77.90784 33 ft 8 kts 36°
2026-05-07 01:54 34.26664 -77.90771 34 ft 10 kts 353°
2026-05-07 01:54 34.26716 -77.90789 35 ft 4 kts 295°
2026-05-07 01:54 34.26711 -77.90823 35 ft 5 kts 247°
2026-05-07 01:55 34.26698 -77.90857 35 ft 1 kts 244°
2026-05-07 01:55 34.26698 -77.90858 34 ft 0 kts 244°